Theta_e
316 324 324 325 331 336 338 339 337 336 336 332 331 334 338 345 345 358 355 355 355 358 350 348 350 346 342 340 338 338 337 337 337 335 328 326 323 325 325 328 328 332 334 331 330 333 333 326 332
316 324 325 326 332 337 339 338 336 336 333 330 331 332 341 346 341 345 350 355 356 360 360 350 349 345 342 339 338 338 336 337 337 337 331 327 323 325 326 330 335 337 336 336 336 334 329 323 324
316 324 328 331 331 335 337 337 336 334 331 330 331 330 338 342 341 344 354 358 356 360 362 351 349 345 342 338 338 337 335 335 337 338 333 330 324 324 327 330 336 338 337 336 333 329 325 323 322
325 326 325 328 331 333 333 334 333 331 331 329 329 331 337 339 340 344 356 358 358 362 361 352 348 344 342 338 337 336 334 334 335 337 335 331 328 323 326 328 332 334 333 331 330 329 324 323 323
323 325 329 329 330 332 331 330 329 330 330 329 328 330 331 337 338 343 356 358 359 361 361 357 348 344 342 338 337 335 333 333 332 335 335 332 332 324 325 327 330 330 331 330 329 326 324 323 323
325 325 329 330 330 331 329 328 328 328 329 328 328 327 330 327 337 341 352 358 357 360 360 359 348 344 341 338 336 335 332 330 327 329 332 332 334 329 323 327 330 329 329 327 326 324 323 323 324
324 327 329 329 329 330 327 326 326 327 327 327 325 326 329 327 325 339 346 357 358 358 359 361 347 344 342 338 336 334 332 329 324 324 327 329 331 333 323 326 328 329 328 328 328 325 323 324 324
323 326 327 328 328 329 327 325 324 323 324 323 323 326 328 325 323 329 341 350 357 358 358 359 353 345 342 339 336 333 331 328 324 321 324 327 330 333 325 325 328 329 330 328 329 323 323 323 324
320 324 325 326 327 328 326 326 324 323 322 321 322 322 323 322 322 323 331 342 354 357 358 359 356 352 348 345 339 335 332 329 324 322 324 325 330 331 327 324 329 329 329 328 329 322 322 323 323
321 322 323 324 326 326 325 323 322 322 322 322 322 322 321 321 321 322 324 329 342 357 358 357 358 355 350 346 348 337 334 331 325 322 323 326 337 341 340 337 327 331 329 329 327 322 322 322 329
321 321 323 323 322 321 320 320 320 320 321 321 321 322 322 321 321 321 322 323 326 344 357 358 357 357 354 348 349 346 344 341 335 337 334 327 340 344 340 344 339 332 329 331 327 323 322 324 332
320 320 320 321 320 319 320 319 319 320 320 320 320 320 320 320 320 321 321 322 323 324 342 355 357 357 356 353 349 350 345 345 344 343 342 339 342 343 342 342 347 344 342 339 338 335 332 333 333
319 320 319 318 318 318 318 318 318 318 318 317 318 318 318 318 319 319 320 321 322 322 324 339 353 357 356 354 352 350 346 345 344 344 344 344 341 342 345 343 345 344 342 340 337 336 335 334 335
318 318 318 318 318 318 318 318 318 318 318 317 317 318 318 318 318 319 320 320 321 322 323 324 335 353 355 354 354 351 349 346 346 345 345 346 342 342 345 344 344 342 341 339 338 337 336 337 336
317 318 319 319 319 319 318 319 319 318 318 319 318 318 319 319 318 318 319 320 320 321 322 323 325 342 350 351 354 354 351 350 347 346 346 347 343 343 343 344 344 342 341 339 338 337 336 336 337
318 319 320 322 319 318 318 319 320 319 319 319 319 319 319 319 319 319 319 319 319 320 321 322 322 322 335 349 348 349 352 352 349 348 347 348 347 343 343 344 344 342 341 341 339 338 336 336 339
320 321 322 321 321 319 319 319 321 320 319 319 319 319 319 319 319 319 319 319 319 319 320 321 322 325 324 330 342 348 349 352 351 349 348 347 348 346 345 344 341 341 341 341 340 339 335 334 339
320 320 319 319 320 320 320 321 321 321 321 320 320 320 320 320 319 318 318 319 319 320 320 320 321 323 323 319 337 343 346 349 351 351 349 348 347 348 346 345 341 341 341 341 340 338 335 336 339
316 317 317 319 320 321 321 321 322 322 322 322 322 321 321 320 320 320 320 319 319 319 320 321 321 321 324 324 329 341 342 345 349 349 351 349 348 349 348 345 343 342 341 340 338 338 335 338 340
317 318 319 320 321 321 322 322 323 324 323 322 322 322 322 321 321 321 321 320 320 320 320 321 321 322 325 326 327 334 339 343 345 351 349 351 349 348 347 347 344 343 341 339 339 338 338 338 340
320 321 321 321 321 321 322 324 324 324 323 322 321 321 320 320 321 321 320 320 320 321 321 321 322 322 324 328 326 329 340 344 347 349 349 349 349 348 348 347 346 344 341 339 336 335 335 339 339
321 321 321 321 322 323 323 324 324 324 324 323 322 322 320 320 320 320 320 320 321 322 321 321 322 323 324 325 329 328 335 342 345 346 347 350 349 348 349 347 346 345 344 339 337 334 329 330 340
320 320 320 320 322 323 323 324 324 324 324 323 322 320 320 320 320 320 320 321 321 322 323 324 325 326 325 324 328 329 334 337 340 342 342 342 346 348 347 348 347 344 345 341 338 337 338 335 338
319 320 322 323 324 326 325 325 325 324 324 323 322 320 319 319 319 319 319 320 321 321 321 323 325 328 329 327 324 335 333 337 337 338 340 343 345 343 344 347 347 346 344 342 338 339 332 330 335
320 322 324 324 324 326 325 324 324 323 323 321 320 319 319 320 320 320 320 320 321 321 321 321 321 323 325 328 330 333 338 339 339 340 341 343 343 345 342 344 347 346 345 343 341 339 342 341 343
319 320 324 325 324 324 323 323 323 323 321 320 319 319 319 319 320 319 319 319 319 319 319 319 320 321 322 324 327 331 337 338 339 339 341 343 344 344 343 343 344 346 345 345 341 340 339 344 341
321 321 321 323 323 324 323 323 324 323 322 321 320 320 319 319 319 318 318 318 317 317 317 318 318 319 320 321 323 326 329 336 339 338 340 341 341 344 344 344 344 346 345 345 343 342 341 344 344
320 320 323 324 327 326 322 323 322 323 322 321 321 319 319 318 317 317 316 315 315 315 315 315 316 317 319 319 321 322 325 328 333 338 337 342 341 343 341 344 344 345 346 345 343 342 343 344 345
321 321 320 320 321 325 325 322 323 322 322 321 320 317 316 315 315 315 314 313 313 313 313 313 314 315 317 318 319 320 322 325 328 331 336 339 342 342 343 343 344 346 346 344 342 342 342 342 343
320 321 320 326 326 325 328 326 321 321 319 320 318 316 315 314 313 313 312 312 312 312 311 311 311 313 314 317 318 319 321 322 327 329 331 336 341 341 342 343 343 345 344 344 342 342 342 342 343
Wind_Speed
5 11 8 9 8 8 16 4 6 5 6 11 9 6 6 19 10 5 7 10 4 12 15 20 20 19 17 15 17 15 16 15 13 11 12 13 14 15 15 15 15 13 12 12 11 10 8 7 8
4 7 8 12 8 13 12 9 7 1 10 8 5 10 3 14 13 3 8 10 4 13 14 21 20 19 17 16 17 16 16 16 14 12 12 13 14 15 15 15 13 12 12 11 10 9 8 8 9
3 6 13 11 12 14 13 6 6 7 4 6 6 7 7 6 9 9 11 3 7 14 14 21 21 19 17 17 16 16 15 15 14 12 12 13 14 15 16 14 13 12 11 10 9 9 8 9 10
4 6 11 11 18 16 11 8 10 7 3 2 6 3 8 7 7 10 9 2 10 13 13 19 22 20 19 18 16 16 14 14 14 13 13 14 15 16 16 15 13 12 11 10 9 8 8 10 11
6 12 12 18 18 19 1 6 7 10 6 6 7 6 2 4 8 10 8 3 9 12 15 18 22 21 20 18 16 15 15 15 14 14 14 15 16 16 18 16 14 12 11 11 10 9 10 11 13
13 8 13 16 18 15 4 1 8 11 11 8 6 7 0 4 8 8 6 1 7 11 15 14 22 22 22 19 18 16 16 16 16 16 16 17 17 17 18 18 15 13 11 10 10 9 10 11 13
15 13 16 20 20 10 7 4 10 8 6 8 7 8 4 3 8 7 6 1 7 11 14 11 22 24 23 21 20 18 17 17 17 17 18 18 18 18 18 19 16 14 13 11 10 10 10 11 13
13 10 20 19 14 18 8 2 3 9 10 8 8 6 5 8 8 7 4 2 5 11 13 13 17 24 24 23 22 20 19 18 18 18 19 19 19 19 19 19 18 16 14 12 11 10 10 11 12
10 9 14 20 19 10 12 5 8 6 11 15 11 12 12 10 10 8 6 4 6 10 13 14 15 18 20 19 23 22 21 21 20 20 20 20 20 21 21 20 19 17 15 13 12 11 11 11 11
12 12 17 9 11 7 8 4 11 13 16 15 14 15 12 10 11 11 9 8 6 10 12 15 18 18 19 19 19 25 24 23 23 22 23 22 18 17 17 17 21 18 17 15 14 13 12 11 9
9 13 9 7 7 8 11 14 15 18 16 18 17 13 14 14 14 14 13 11 10 4 14 15 21 20 19 20 20 19 19 20 22 21 21 23 18 17 18 16 20 21 19 17 16 15 14 11 9
11 13 9 13 7 12 14 18 19 20 21 20 20 19 19 20 18 17 15 13 11 10 9 15 16 23 23 22 23 18 21 21 21 22 23 22 21 20 19 18 14 17 15 15 14 12 12 12 11
12 14 7 12 15 17 19 19 20 24 22 22 21 21 22 22 21 19 17 16 15 13 13 12 18 21 25 29 23 22 22 23 21 22 24 23 23 23 20 20 17 16 16 14 16 13 13 13 13
9 10 14 16 18 18 17 20 19 17 13 14 15 19 19 19 20 19 19 19 18 16 13 13 14 20 25 28 26 24 25 24 24 23 24 27 25 26 22 22 21 18 17 17 16 16 15 14 13
10 15 16 19 14 10 14 17 20 21 20 19 23 21 21 21 21 23 23 23 22 20 18 16 16 17 22 23 26 27 26 25 25 24 26 28 29 27 26 22 22 20 19 21 18 17 17 13 14
13 14 13 10 8 13 7 17 16 11 12 20 21 21 24 24 26 27 26 25 25 23 22 19 17 16 21 23 25 25 30 29 27 25 25 28 30 28 29 23 23 21 20 20 19 18 16 15 15
13 12 8 11 2 8 12 17 21 24 22 24 26 28 28 29 28 30 29 28 26 25 24 25 22 20 20 23 26 25 26 33 32 29 28 29 30 30 28 25 23 24 22 20 19 18 19 18 17
17 16 16 15 13 11 18 24 21 23 24 26 27 29 29 29 29 26 26 28 27 25 24 25 24 25 26 24 27 27 27 28 31 32 33 31 33 31 32 23 24 26 23 21 20 21 18 17 16
13 16 19 18 16 17 19 22 23 24 25 26 28 28 30 30 27 23 22 22 25 26 24 24 27 29 28 22 27 29 31 30 31 36 30 33 33 31 34 28 27 28 25 26 23 22 22 21 19
15 18 20 18 15 15 21 26 24 22 12 14 15 18 20 22 24 21 19 18 18 20 23 24 24 27 28 24 27 31 31 32 30 32 39 32 31 33 34 31 27 29 27 29 27 28 22 24 23
15 17 19 19 19 21 25 23 20 11 4 8 10 10 12 13 17 12 14 14 14 16 20 23 23 25 26 25 24 28 29 28 27 28 34 35 36 34 36 32 30 30 29 30 34 34 30 22 23
17 15 13 17 18 16 17 18 24 20 8 8 8 5 11 17 9 9 11 11 12 12 12 14 17 20 22 23 24 27 31 31 31 28 31 27 33 37 36 33 31 30 30 29 29 33 34 30 27
15 14 17 21 21 20 21 12 19 6 15 3 3 9 9 4 7 8 10 9 11 11 10 9 9 12 18 25 22 25 26 29 27 28 27 32 35 35 36 37 35 35 32 29 31 31 34 32 28
12 16 20 23 18 16 23 17 14 5 13 8 9 10 11 14 16 16 16 12 13 12 11 10 9 10 10 12 20 21 26 26 25 25 27 27 26 35 38 38 37 37 35 32 34 33 32 32 29
13 12 12 9 11 13 4 7 9 13 12 6 11 10 12 11 13 12 14 13 13 15 14 13 12 13 10 9 10 18 21 23 24 23 24 24 27 26 37 35 40 38 37 32 29 33 29 28 29
16 12 9 17 14 18 25 15 12 3 3 2 12 10 8 13 11 12 14 15 16 19 18 17 17 16 14 11 9 12 17 20 23 22 24 26 23 25 28 31 36 42 37 33 30 31 31 29 29
7 10 8 13 18 16 18 24 9 12 6 6 10 13 16 18 21 20 19 20 23 25 25 24 23 22 19 15 12 11 12 16 23 25 18 22 26 23 23 28 31 38 42 32 33 30 28 30 26
12 13 9 5 6 11 11 16 14 7 19 13 19 24 22 23 24 27 30 32 36 36 33 30 29 27 24 20 16 13 11 12 14 21 25 20 21 22 24 26 27 32 38 39 31 24 30 34 31
7 9 6 10 9 8 14 10 14 23 14 7 18 20 22 24 24 29 33 36 39 40 39 38 34 33 28 24 19 17 14 12 12 14 18 25 19 21 21 24 28 31 36 35 28 33 32 35 33
12 16 11 4 10 12 14 20 23 10 7 21 28 29 28 28 31 33 34 36 37 37 37 36 36 34 34 28 23 20 17 14 14 14 15 17 25 21 21 22 25 28 30 32 35 33 35 33 35
Wind_Direction
311 324 295 280 248 231 262 187 325 185 193 25 2 355 16 47 25 42 7 23 64 167 180 183 181 177 179 183 182 180 183 183 178 171 164 162 165 167 162 159 158 157 161 161 161 167 172 175 170
308 298 276 272 258 262 236 114 221 117 38 343 356 327 143 85 32 70 353 344 153 174 178 184 189 179 185 185 185 184 186 187 185 182 172 170 170 172 170 167 165 162 161 166 168 175 181 178 172
309 270 270 245 242 258 284 150 174 56 302 11 352 51 20 16 18 359 342 2 163 175 177 188 192 182 189 189 189 188 191 191 193 190 182 177 177 178 179 176 175 173 175 178 179 180 182 179 173
266 237 252 253 262 268 274 40 30 284 245 346 9 109 119 50 17 357 353 47 160 175 176 194 191 187 193 192 194 194 197 198 200 198 193 187 186 186 188 185 185 186 186 187 187 187 186 182 177
251 260 262 256 250 261 197 346 302 291 297 292 5 41 66 47 10 9 9 89 167 173 178 205 195 192 195 196 199 202 201 205 207 206 203 198 194 193 195 193 192 191 190 188 196 195 189 185 182
251 253 264 260 253 244 85 299 278 273 289 297 291 342 201 52 9 7 18 84 180 182 181 210 198 198 198 199 203 206 207 209 212 210 208 205 203 201 201 200 198 197 198 197 199 201 195 190 189
252 270 264 278 278 259 213 105 274 304 314 289 355 285 107 92 358 352 1 16 187 190 186 206 200 201 202 202 206 209 212 214 216 214 211 209 208 208 207 207 206 205 209 211 209 209 203 199 198
276 275 268 269 267 270 74 174 276 267 280 333 294 269 246 14 338 328 317 302 203 197 197 204 190 202 205 207 208 210 215 218 219 217 215 214 213 213 211 212 214 214 217 222 219 215 211 208 207
259 255 256 262 260 241 104 260 258 263 272 263 258 272 282 298 306 311 291 256 217 205 203 203 199 201 197 204 211 211 214 216 216 217 216 215 214 214 215 214 220 222 223 226 227 222 218 216 215
242 244 257 17 357 329 337 273 289 291 276 266 253 261 261 270 288 288 274 272 238 217 217 213 201 204 202 204 215 211 215 217 213 214 215 210 203 213 206 215 222 222 228 226 229 226 222 220 222
248 255 329 311 305 308 294 283 270 268 268 269 275 278 278 277 284 277 266 259 257 228 216 212 209 200 206 204 216 208 206 207 214 210 212 202 203 210 198 215 227 227 225 229 230 231 226 222 199
267 243 291 273 276 273 273 282 277 271 270 277 276 275 273 274 273 270 264 258 251 245 238 232 227 211 207 208 216 214 208 208 206 207 207 202 197 207 206 209 217 212 223 211 228 225 221 214 219
252 272 243 264 270 271 280 273 276 270 269 273 270 269 269 268 264 261 256 254 252 251 241 232 234 222 214 211 215 217 215 215 211 211 208 203 204 207 206 206 213 214 210 219 213 214 227 220 220
335 288 277 270 270 277 287 282 277 265 263 259 256 263 265 266 263 257 256 253 250 249 244 245 230 241 233 216 218 220 218 219 215 214 215 207 207 210 208 204 208 211 210 215 213 215 219 215 219
285 283 274 258 255 268 302 279 259 267 266 268 262 259 267 266 261 257 260 256 252 249 249 248 240 213 231 231 228 223 224 222 223 218 218 221 207 211 205 208 210 210 213 208 213 214 215 214 215
250 253 273 144 200 238 233 281 285 301 284 278 269 265 267 267 266 260 259 256 254 252 251 250 246 243 235 232 232 227 225 227 223 224 222 220 215 205 217 212 211 211 212 214 211 211 213 209 216
194 281 245 306 197 259 242 274 289 284 274 268 264 265 264 266 263 257 258 258 256 256 252 250 251 250 242 237 237 236 230 230 224 222 222 225 216 215 212 211 214 207 211 214 213 214 209 210 207
322 311 303 294 296 279 273 281 284 283 278 274 269 267 266 263 261 259 258 257 258 256 254 252 252 253 252 238 237 235 233 231 232 227 223 221 223 215 214 216 211 211 210 213 211 214 210 211 215
296 286 285 288 286 295 282 287 288 285 277 269 266 266 265 264 265 265 262 258 256 256 257 253 255 253 249 247 233 234 230 231 230 230 224 223 222 215 219 211 214 209 208 208 218 213 208 211 210
283 283 281 284 294 298 294 287 289 275 280 274 272 268 271 275 273 264 265 261 260 264 266 264 262 258 253 245 236 234 236 230 234 233 224 223 221 221 220 217 217 215 208 214 205 206 210 212 214
285 289 294 303 311 286 270 274 295 179 307 306 288 286 283 280 282 274 276 275 274 278 273 266 264 258 248 248 242 237 233 233 230 229 227 228 224 222 220 226 207 220 211 216 208 216 211 210 214
294 308 318 292 293 291 323 298 286 271 263 247 282 332 334 314 237 271 280 268 281 293 294 272 266 257 253 249 246 240 234 233 232 232 226 224 227 228 229 224 224 213 220 213 225 218 221 208 212
292 323 299 288 280 284 278 265 276 174 222 174 350 318 302 311 304 305 303 298 300 297 308 302 289 277 265 242 242 241 239 237 237 232 230 233 226 224 229 227 222 217 218 213 218 220 215 218 210
283 283 287 270 257 257 264 245 259 314 24 341 319 331 339 320 316 295 282 278 279 286 298 309 307 306 296 268 230 245 236 233 237 232 231 230 232 228 227 227 227 228 222 215 218 222 227 221 227
275 293 308 292 248 243 171 257 273 287 294 360 324 322 331 337 311 324 303 292 291 288 290 297 301 307 310 307 267 242 240 238 234 235 235 231 232 228 226 227 225 228 229 219 217 214 215 221 213
291 293 281 294 296 306 314 293 301 165 238 239 288 278 280 296 286 292 296 293 290 296 297 297 297 298 299 303 294 263 243 234 237 238 235 233 230 233 229 231 226 224 231 229 219 216 214 220 217
355 265 341 294 284 272 272 263 298 271 272 338 329 347 335 324 306 301 296 291 288 288 289 288 289 287 290 291 287 277 261 239 238 228 238 240 235 233 234 234 231 229 225 224 219 218 222 217 208
233 297 298 282 284 293 295 316 297 348 335 8 357 339 324 310 301 298 296 294 289 291 289 284 278 277 276 279 278 271 260 253 239 244 237 233 237 237 240 237 238 232 227 217 210 209 216 209 208
249 238 269 285 256 274 289 273 357 329 326 8 330 321 314 312 302 296 294 291 289 284 280 278 276 272 269 267 267 266 263 256 254 243 241 237 234 238 236 240 236 228 224 219 210 203 206 212 207
269 276 265 234 274 267 284 274 278 281 289 309 333 328 328 319 310 306 302 297 291 287 282 277 273 266 267 261 258 259 258 257 253 250 239 237 237 239 239 243 242 233 226 215 205 209 205 209 208